User: anonymous
Location: Girdwood
(60.9430°N, 149.1660°W)
Time: 14:25:09
(UTC-08:00)
Language:

Iridium 86 - Orbit

View from above orbital plane
View from above orbital plane
View from above satellite
View from above satellite

Ground track
Ground track

The orbit data is extracted from the following two-line orbital elements,

1 25528U 98066B   14265.93504521  .00000302  00000-0  10079-3 0  1579
2 25528 086.3963 047.1377 0002193 104.7199 255.4239 14.34215599836284
Epoch (UTC): 22 September 2014 22:26:27
Eccentricity: 0.0002193
inclination: 86.3963°
perigee height: 776 km
apogee height: 779 km
right ascension of ascending node: 47.1377°
argument of perigee: 104.7199°
revolutions per day: 14.34215599
mean anomaly at epoch: 255.4239°
orbit number at epoch: 83628

The dashed part of the orbit path shows where the satellite is in the earth's shadow,  

DLR